Dewpoint
55 50 51 35 21 15 11 17 29 39 42 42 49 51 53 55 53 48 63 67 67 68 69 70 70 69 69 69 69 69 69 69 69 68 68 68 68 67 67 68 66 64 64 66 67 66 65 66 65
55 45 37 29 10 8 10 15 35 41 39 43 50 53 50 52 57 59 61 65 67 68 69 70 70 69 69 69 69 69 69 68 68 68 68 68 68 68 67 67 66 65 65 66 66 66 65 64 64
45 43 30 23 15 7 9 15 19 40 41 40 45 44 45 48 52 57 62 65 66 67 68 69 69 68 68 68 68 68 68 68 68 68 69 69 68 68 67 67 67 67 66 66 66 66 65 64 64
34 34 25 10 9 7 10 14 15 18 29 44 44 43 48 55 55 60 63 66 66 66 67 68 69 68 68 68 67 68 67 68 68 68 67 67 68 67 67 68 67 66 67 66 66 66 66 65 64
34 26 17 14 9 11 14 15 15 15 30 42 44 43 47 55 60 62 64 65 65 65 67 68 68 68 68 68 68 68 68 67 67 67 67 68 68 67 67 68 67 66 66 67 65 65 66 66 65
30 21 12 10 7 14 17 18 16 18 21 39 43 45 44 52 59 59 61 62 63 65 66 67 67 68 68 68 68 68 67 67 67 67 66 66 67 67 67 67 67 66 66 67 66 65 65 65 66
27 19 13 14 8 15 17 19 18 18 33 37 40 42 44 50 56 57 57 58 60 61 62 62 63 66 67 67 67 66 67 67 67 67 67 67 67 67 66 66 67 67 66 67 67 66 66 65 65
29 21 16 15 8 14 18 19 20 18 21 28 38 40 41 47 56 53 52 53 55 57 57 59 57 58 61 64 66 67 67 67 67 66 65 65 65 65 66 65 65 65 66 66 66 66 67 66 66
28 15 14 11 11 13 22 17 20 21 19 29 38 41 44 49 50 48 47 48 48 51 55 55 53 55 59 60 64 66 65 63 62 63 64 64 64 64 63 60 63 64 64 64 65 65 65 65 66
24 19 17 17 21 20 23 20 20 20 20 27 40 44 44 46 44 44 43 43 44 46 48 51 50 51 53 55 57 64 64 62 61 61 63 63 61 64 60 59 60 64 64 64 64 64 65 65 65
24 11 19 22 26 25 21 20 24 20 19 21 34 42 43 43 43 42 43 44 44 45 46 46 46 47 47 46 50 56 56 52 50 51 61 61 62 64 63 62 63 63 61 60 64 63 64 63 64
21 22 23 22 27 24 20 25 23 22 21 22 25 41 41 41 41 42 43 43 44 45 45 44 43 41 41 41 41 43 42 43 44 46 49 49 49 49 52 53 55 55 55 53 53 53 53 62 63
22 24 27 26 26 25 25 23 23 22 23 24 35 40 40 41 42 44 44 44 44 44 44 42 43 42 42 41 41 42 42 43 44 44 46 47 46 46 48 50 50 54 56 56 55 54 52 52 57
26 26 25 25 24 26 24 23 23 20 24 24 37 39 39 40 42 43 44 44 44 45 42 43 43 43 42 42 43 43 42 43 44 45 45 46 46 46 47 47 48 50 52 53 55 55 55 54 53
25 18 21 22 24 23 23 17 19 22 23 24 35 38 39 39 39 42 43 44 45 42 42 42 43 43 42 43 44 44 44 45 45 46 46 46 47 47 47 47 47 47 47 49 54 54 55 54 54
21 19 12 17 25 25 17 10 10 19 23 24 33 35 37 37 38 41 43 44 44 42 42 43 43 42 42 43 44 44 45 46 46 46 47 48 48 48 48 48 48 48 48 48 51 52 51 52 52
25 15 14 15 25 24 19 14 12 21 21 21 26 31 35 35 36 37 42 44 42 41 42 42 42 42 42 44 44 45 46 46 46 47 47 47 48 48 48 48 48 48 47 47 52 51 51 49 49
14 15 15 13 14 23 20 19 18 18 18 18 19 28 34 33 33 36 42 43 41 40 42 42 42 42 43 45 44 45 45 46 46 46 46 46 47 47 47 48 48 48 48 47 47 50 52 50 49
17 15 14 13 14 16 19 20 20 20 21 20 19 21 32 32 32 37 41 41 39 41 41 41 41 42 42 42 41 42 43 45 45 46 44 44 45 45 45 46 46 46 47 47 47 47 48 48 48
16 14 12 15 19 20 18 17 18 19 18 18 18 18 29 31 33 37 39 39 39 40 41 41 42 42 42 43 43 43 44 45 44 44 44 45 44 45 45 44 44 45 45 45 46 46 46 47 47
18 17 17 19 22 19 19 14 16 17 19 19 19 19 26 30 32 36 37 38 39 40 41 41 42 43 44 44 44 44 44 43 41 43 43 44 44 45 45 45 44 45 45 45 45 45 45 45 45
16 24 23 22 18 8 21 3 11 14 16 16 18 20 22 30 33 36 36 38 39 40 41 42 43 43 44 43 42 40 40 39 41 43 44 44 44 44 45 44 44 45 45 44 44 45 45 45 43
18 23 22 22 20 22 17 16 10 13 12 15 19 20 22 29 33 35 36 38 40 41 42 43 43 43 43 42 41 40 40 41 43 43 43 43 43 44 43 44 43 44 44 44 43 43 43 44 44
26 21 22 25 24 16 18 14 8 9 14 16 19 22 22 30 33 35 37 40 41 42 42 43 43 43 41 41 41 40 40 42 42 41 41 41 42 42 42 42 42 42 42 43 44 43 43 42 43
23 17 10 11 17 14 17 16 14 15 19 20 22 24 25 31 35 37 39 40 41 42 42 43 43 41 40 40 40 40 41 41 40 40 40 40 41 41 41 41 41 41 42 42 43 43 43 41 41
24 18 9 9 12 17 17 13 11 19 23 24 27 28 28 33 36 37 39 41 41 42 43 43 41 40 39 38 38 39 40 41 40 40 40 40 40 41 40 40 40 41 41 41 41 41 41 41 42
21 21 22 19 19 16 14 14 16 23 23 24 28 29 32 32 37 38 41 42 42 42 42 42 40 39 38 37 37 38 39 40 39 40 40 40 40 39 39 40 40 40 40 40 40 41 41 42 43
23 24 18 19 12 8 12 14 10 18 19 23 27 30 35 37 39 41 42 42 41 41 42 41 40 39 37 37 37 38 39 40 39 40 39 39 39 39 39 39 39 39 39 39 40 41 42 42 43
25 22 22 20 17 11 12 12 18 20 21 22 29 32 35 38 40 41 42 41 41 41 41 41 39 38 37 38 38 38 39 39 39 39 39 39 38 38 38 38 38 38 39 39 40 41 42 42 43
24 21 21 17 15 20 17 15 21 22 22 24 29 32 35 38 40 40 40 40 40 41 40 40 39 38 38 38 38 39 39 38 38 38 38 39 38 38 38 37 37 38 39 40 40 40 42 41 41
Wind_Speed
11 13 2 4 3 5 3 2 1 6 4 3 4 10 11 4 4 5 4 5 19 14 12 11 12 13 14 14 14 12 11 11 11 12 12 12 11 9 9 8 10 10 11 11 13 12 11 10 9
11 4 5 3 5 4 1 3 4 4 1 3 11 6 5 4 2 3 2 2 16 13 10 11 15 14 14 14 13 12 12 11 11 11 11 11 11 8 8 8 9 10 10 10 10 10 9 9 7
7 1 3 4 4 3 4 1 1 1 4 3 3 6 3 2 3 1 4 3 11 14 11 11 14 14 15 13 12 12 13 12 11 11 11 11 9 9 7 6 7 8 10 9 9 8 8 7 6
3 4 5 4 5 4 4 3 2 1 4 4 6 7 4 3 1 5 7 8 14 15 14 14 15 13 13 13 12 12 12 11 11 10 9 9 8 7 6 6 7 7 8 8 7 7 6 5 4
5 4 4 3 4 2 2 2 2 5 2 2 2 4 2 2 4 5 8 9 12 14 11 14 14 14 13 12 12 11 12 11 10 9 10 10 9 8 7 6 6 7 6 6 5 5 4 4 3
4 3 4 2 1 3 2 5 3 6 5 2 3 5 2 2 6 6 6 11 9 12 12 10 15 14 12 12 11 11 10 11 10 9 9 9 9 8 7 7 5 5 5 4 4 4 4 3 2
4 4 3 2 2 1 1 4 4 2 4 3 2 4 1 2 5 7 10 11 12 10 11 12 8 10 10 9 9 9 10 10 10 9 7 7 7 7 8 8 6 5 5 5 4 4 4 3 3
5 4 2 1 2 0 6 3 1 2 1 4 2 4 4 6 10 9 10 11 12 9 10 9 9 8 9 7 6 7 8 10 9 9 9 9 8 7 6 6 4 5 5 5 4 5 6 5 5
3 3 3 1 1 2 5 3 3 0 2 3 4 3 3 15 12 11 10 9 9 9 6 4 7 9 8 9 7 6 11 12 10 8 6 7 6 6 7 5 4 4 4 1 2 3 5 6 6
3 3 3 1 2 2 3 2 5 2 2 1 4 7 12 16 13 13 11 11 9 7 6 6 5 6 7 5 5 5 6 6 6 2 4 3 2 4 5 3 4 3 7 6 4 2 4 5 4
2 2 3 2 3 1 3 4 4 3 5 7 9 17 15 14 12 12 9 10 10 8 8 5 5 5 5 6 6 8 10 11 9 10 6 4 3 5 2 4 5 4 7 6 3 3 3 4 4
1 1 3 3 2 1 5 4 6 6 8 4 11 22 17 17 16 14 13 11 10 9 8 8 7 9 11 12 11 9 12 12 13 12 11 11 10 10 9 7 7 8 7 4 6 5 5 4 5
2 3 5 3 5 6 3 9 7 14 13 3 10 20 22 19 16 12 13 11 10 10 7 8 10 13 12 14 12 12 11 12 11 13 13 11 11 10 8 8 9 9 7 7 6 5 5 6 5
2 6 12 9 8 5 6 6 2 6 5 10 17 22 18 19 17 13 13 13 10 10 9 8 12 12 13 13 12 11 11 10 12 12 12 13 11 10 9 9 8 8 7 5 5 4 6 5 6
3 8 10 4 6 6 3 9 12 13 5 12 16 18 17 17 17 21 19 15 15 12 11 12 11 11 14 14 12 11 10 12 12 11 12 12 11 10 9 8 8 8 7 7 6 5 5 6 7
4 2 5 2 6 2 1 10 8 4 11 12 12 15 16 15 22 19 18 16 14 14 13 9 10 11 13 13 11 11 12 13 12 12 12 12 11 10 9 8 8 7 7 6 4 5 5 5 5
4 5 5 8 5 3 7 9 7 5 12 13 15 15 16 17 15 16 19 20 19 15 13 12 9 10 11 12 12 13 13 13 11 11 11 11 11 10 10 9 9 9 8 9 6 3 3 5 7
7 8 6 9 3 7 13 24 18 13 10 17 18 20 19 23 23 21 21 19 19 16 13 11 8 8 9 10 10 10 11 10 10 10 10 10 10 10 10 10 11 10 7 7 6 3 2 3 5
6 9 13 11 12 8 14 26 24 22 15 20 22 20 21 26 19 21 21 20 19 16 15 13 11 8 10 7 7 6 6 6 8 9 10 9 8 9 9 8 9 9 8 6 6 4 4 3 3
6 10 12 11 5 4 17 26 28 21 24 23 24 24 24 17 18 20 21 22 22 19 15 12 11 9 8 6 5 4 5 6 7 6 9 9 8 8 7 7 7 8 8 10 10 9 5 3 5
7 8 7 8 11 8 12 12 10 6 5 11 16 20 22 28 25 23 22 23 22 21 17 15 12 10 9 9 9 8 8 4 4 5 6 7 6 7 8 9 9 9 8 8 8 9 9 7 7
11 2 4 8 10 4 6 13 11 13 17 9 17 18 22 22 20 24 23 22 24 21 18 15 12 12 9 9 10 8 6 5 2 3 4 8 8 6 6 8 8 8 8 9 8 8 7 7 6
5 6 8 3 4 5 3 7 9 10 10 15 20 4 17 24 26 26 25 26 20 21 21 17 14 11 9 10 11 11 10 7 5 6 6 6 7 8 5 5 6 6 6 5 6 7 8 5 4
5 7 5 4 3 3 2 3 7 4 5 10 11 14 2 18 20 19 17 19 20 18 19 19 16 11 9 10 9 10 10 9 7 4 4 3 4 5 5 5 7 6 6 6 6 5 2 5 6
2 3 7 4 2 4 1 4 15 9 7 8 13 13 11 11 19 22 24 23 22 21 18 17 17 13 9 9 8 8 8 8 7 5 3 2 2 1 5 5 7 7 7 7 7 7 7 6 8
3 4 3 6 5 6 4 9 4 2 6 8 9 8 10 8 13 18 21 21 21 19 18 16 15 13 10 9 8 6 6 6 4 3 2 1 3 3 8 8 7 6 7 9 9 7 7 6 9
3 5 2 2 1 5 5 7 4 2 6 8 10 11 10 3 10 13 15 16 17 16 16 18 16 13 10 9 7 6 5 5 4 4 3 3 4 6 9 8 7 8 8 7 8 8 9 8 9
4 4 3 1 4 6 7 10 13 4 3 5 8 10 7 6 11 14 15 16 15 16 15 16 15 14 11 9 7 6 5 4 3 4 4 5 4 9 9 9 8 8 8 8 9 10 9 9 9
4 4 4 3 6 5 6 8 5 5 3 1 2 5 4 6 10 14 15 16 16 15 16 15 14 14 10 8 6 6 5 4 5 4 4 4 4 7 8 8 9 9 10 10 9 9 10 10 10
6 13 13 8 6 6 3 18 2 5 4 4 5 4 6 9 9 15 16 16 16 16 15 15 14 13 10 7 6 5 4 4 4 4 5 6 5 5 6 8 9 10 11 10 11 11 10 11 13
Wind_Direction
339 333 69 41 88 60 69 53 338 37 33 359 352 94 113 99 117 155 288 142 143 153 150 142 142 132 123 121 124 130 130 128 126 130 134 126 117 113 111 104 101 99 96 88 90 95 92 87 81
335 350 48 78 81 86 31 334 69 63 154 55 87 112 62 92 63 110 79 130 144 144 140 138 125 125 122 119 121 124 123 124 124 122 126 124 121 116 111 114 105 108 105 100 99 100 98 91 76
334 12 48 70 92 87 148 207 72 279 337 50 92 59 66 69 360 56 347 143 141 141 141 127 124 123 123 122 121 122 117 118 122 123 119 118 118 108 110 111 113 108 120 114 110 108 101 89 73
5 24 48 61 65 33 143 176 252 17 359 42 121 82 79 53 352 319 281 127 133 139 141 121 115 117 117 119 122 123 121 119 117 116 126 119 115 115 102 121 131 133 127 125 124 124 118 104 77
45 63 48 42 31 83 54 274 340 47 43 68 193 137 86 31 42 20 89 87 117 123 114 117 119 124 125 124 123 128 129 127 125 122 117 123 123 110 106 111 129 143 148 136 135 137 143 139 119
62 78 65 64 41 184 308 348 35 31 9 1 68 104 202 25 65 38 64 95 84 102 104 110 124 120 120 123 123 132 138 138 139 137 138 136 131 125 116 113 131 148 156 160 164 170 170 174 178
98 85 147 254 256 180 336 323 55 49 20 10 74 118 195 161 127 103 90 74 78 85 95 109 95 106 109 119 127 137 142 142 139 142 137 136 139 137 144 147 148 155 167 184 200 212 208 217 231
111 106 105 345 350 237 356 9 3 59 255 311 118 175 211 184 138 110 92 91 95 84 93 116 108 96 101 91 108 117 133 118 110 104 102 107 102 95 90 110 124 165 179 181 198 234 240 233 243
79 86 150 202 115 192 356 352 342 105 314 42 21 165 163 137 134 123 113 102 104 104 96 80 110 105 97 92 74 106 108 107 95 82 103 112 121 129 105 85 57 60 85 297 165 254 261 256 253
78 124 183 271 166 213 300 345 327 273 330 67 60 87 127 140 147 142 142 134 125 111 119 139 113 103 100 87 57 89 124 69 64 115 86 122 129 129 134 25 44 41 32 356 323 320 296 278 263
150 177 197 214 181 230 287 287 319 240 265 214 204 170 161 158 160 153 155 154 142 131 108 73 116 103 94 88 92 96 90 84 50 64 88 102 61 63 52 4 346 360 69 23 7 12 349 310 279
287 214 268 191 211 262 294 309 295 240 232 229 226 175 168 172 176 171 162 156 142 130 115 97 84 87 87 96 93 94 94 87 76 73 77 87 83 78 72 68 55 55 60 57 40 34 13 9 358
254 302 313 294 275 261 253 267 266 269 257 258 175 172 180 180 183 181 162 151 143 131 121 97 98 94 92 87 86 84 77 75 77 69 69 74 70 64 63 60 50 51 45 49 44 25 16 14 355
280 277 283 279 259 235 238 265 336 269 290 217 178 189 188 187 183 163 162 158 151 140 130 120 110 110 102 89 78 80 79 76 70 62 59 60 61 54 47 43 50 51 47 30 28 20 17 7 358
291 305 317 265 233 220 179 276 236 250 187 174 192 192 193 192 175 174 173 164 156 148 141 133 116 110 100 94 84 75 73 78 76 67 58 58 55 54 49 45 37 19 14 15 27 42 37 29 12
319 359 334 277 161 211 151 276 282 224 173 189 192 195 197 189 182 176 168 159 155 146 141 130 119 110 106 101 93 86 79 82 74 64 62 58 56 53 50 44 31 12 20 13 355 5 357 355 352
5 292 288 315 200 144 204 264 257 182 191 210 211 207 198 190 183 177 170 160 159 156 144 134 126 120 113 110 103 95 94 86 79 75 68 59 51 44 49 42 29 23 29 28 13 353 4 344 345
311 313 294 265 297 240 244 253 257 249 225 229 218 212 201 189 189 180 169 160 157 154 147 137 127 114 106 105 93 87 83 80 77 77 68 59 51 49 49 40 33 28 36 26 22 6 323 287 302
274 270 267 280 275 285 265 270 273 267 263 252 242 222 210 193 188 169 163 157 152 152 149 146 139 128 128 125 112 93 85 81 62 62 56 51 53 47 49 44 36 28 35 18 18 359 1 325 340
285 300 298 298 4 291 290 282 275 263 256 245 237 223 210 191 172 164 161 160 161 161 155 147 141 135 130 128 124 123 126 87 78 58 44 37 46 48 52 48 38 30 21 18 19 21 351 310 347
285 261 278 277 320 285 314 283 306 299 271 280 253 223 201 190 174 167 168 169 162 162 161 153 147 133 123 123 118 104 98 78 55 37 40 28 44 52 57 51 38 31 29 21 12 16 19 347 331
285 221 264 300 339 293 32 296 295 314 318 341 322 214 195 184 178 172 168 169 169 165 154 148 143 136 128 128 130 142 140 133 125 81 61 42 44 45 67 64 51 45 35 26 12 9 14 5 332
275 331 310 314 306 338 308 247 275 335 355 359 3 255 193 181 178 176 175 171 164 156 155 149 142 137 132 125 125 126 120 119 110 98 70 47 38 36 47 51 41 25 16 358 1 7 5 1 330
325 316 343 38 28 282 280 216 286 327 319 324 358 23 220 187 177 172 161 152 151 153 152 148 144 140 132 124 121 123 126 127 117 100 82 58 28 16 12 27 21 7 0 346 322 294 306 353 333
86 23 308 310 306 258 293 219 259 305 335 332 335 350 359 192 166 162 161 162 159 158 153 148 146 144 137 125 119 119 123 126 118 106 91 50 14 6 330 30 0 355 351 348 337 313 283 311 299
173 158 212 278 283 287 301 254 262 338 343 355 358 10 15 172 172 173 169 159 157 154 151 148 146 140 138 131 125 127 132 146 134 121 107 3 318 338 30 15 6 7 1 343 337 331 320 325 297
146 207 151 272 257 293 259 283 262 9 2 0 6 18 18 65 173 163 148 145 145 149 152 152 147 142 140 134 128 122 127 135 128 113 71 7 25 33 19 12 2 351 346 345 340 329 317 305 290
206 159 192 191 263 262 284 272 239 237 308 0 14 12 29 91 135 135 132 136 142 152 153 147 147 145 142 133 125 120 118 115 117 95 48 34 49 36 11 355 350 343 335 328 327 321 304 300 286
173 211 204 181 178 227 294 263 219 216 236 343 53 42 80 121 139 133 134 138 144 146 149 147 145 143 141 134 126 115 97 82 89 71 35 9 33 19 356 344 341 333 325 317 314 306 302 299 298
224 223 195 209 207 212 244 275 267 197 214 193 167 143 131 133 146 145 149 148 150 152 153 153 151 149 150 146 134 120 104 89 84 52 24 17 23 9 342 337 330 316 318 316 315 308 302 304 298